Rbgn^[z[y[W
メイン
   新天体発見情報
     Comet C/2020 J1 (SONEAR)
投稿するにはまず登録を

スレッド表示 | 新しいものから 前のトピック | 次のトピック | 下へ
投稿者 スレッド
佐藤裕久
投稿日時: 2020-5-20 11:22
モデレータ
登録日: 2005-6-12
居住地: 日本
投稿: 2099
オンライン
Comet C/2020 J1 (SONEAR)

5月1日、ブラジル、Oliveiraにある"Southern Observatory for Near Earth Asteroid 
Research" (SONEAR: 地球近傍小惑星捜索南天天文台)の0.28-m f/2.2 アストログラフで得た
画像から、外見上の小惑星状天体が発見された。
小惑星センターのNEOCPとPCCP webpageに公表され、佐藤英貴氏(東京都文京区, iTelescope
天文台, 5月3.8日UT、60秒露出12枚のスタック, 0.43-m f/6.8 アストログラフ, Siding 
Spring, NSW, 遠隔操作:強く集光した12" の丸いコマが見えるが、尾はない。7".4の円形範囲
で測定した全光度は16.2等であった)らCCD位置観測者によって彗星状と観測された。

彗星機能の追加報告は次の通り:

OC   Date        Reporter           Coma    Tail    PA          Exposures
W88  2020-05-02  M. Suzuki           14"
Q63  2020-05-03  P. Breitenstein     16"     32"    220          4x40s
Q62  2020-05-03  H. Sato             12"                        12x60s
X02  2020-05-04  E. Guido             5"
Q62  2020-05-04  C. Jacques           7"     10"    244-274     10x60s
Q62  2020-05-04  B. Lutkenhoner      11"                        10x60s

発見位置は次のとおり、

     2020 UT             R.A. (2000) Decl.       Mag.
     May   1.27339   22 44 05.28   -48 22 29.0   17.0
           1.28056   22 44 05.03   -48 22 33.4   16.7
           1.28771   22 44 05.12   -48 22 38.3   16.7

MPCの放物線軌道要素と位置推算表は次のとおり、

Orbital elements:
    C/2020 J1 (SONEAR)                                                          
T 2021 Apr. 15.73083 TT                                 Rudenko                 
q   3.2564643            (2000.0)            P               Q                  
                   Peri.  344.44934     -0.48942481     -0.74407646             
                   Node   227.85659     -0.72032848     +0.05101501             
e   1.0            Incl.  142.16901     -0.49151829     +0.66614390             
From 28 observations 2020 May 1-4.                                              
                                                                                
Ephemeris:
Date    TT    R. A. (2000) Decl.     Delta      r    Elong.  Phase   m1
2020 04 04    22 37 48.3 -45 42 46   5.1747  4.7473    59.6    10.5  17.3
...
2020 04 19    22 42 17.7 -46 54 25   4.8770  4.6540    71.3    11.8  17.1
...
2020 04 27    22 43 42.2 -47 48 35   4.7090  4.6047    77.9    12.3  17.0
...
2020 05 03    22 44 09.0 -48 37 12   4.5807  4.5680    83.0    12.7  16.9
2020 05 04    22 44 09.9 -48 46 00   4.5593  4.5619    83.8    12.7  16.9
2020 05 05    22 44 09.8 -48 54 59   4.5378  4.5558    84.7    12.7  16.9
...
2020 05 11    22 43 44.0 -49 53 13   4.4088  4.5194    89.8    12.9  16.8
...
2020 05 19    22 41 52.1 -51 22 27   4.2385  4.4712    96.7    13.0  16.6
...
2020 06 03    22 32 56.4 -54 44 41   3.9347  4.3820   109.7    12.6  16.4

(MPEC 2020-J37、CBET 4769)

スレッド表示 | 新しいものから 前のトピック | 次のトピック | トップ

投稿するにはまず登録を
 
© 1999 Tsutomu Seki.